LiveATC.Net - Listen to live air traffic control over the Internet!


ICAO: WMKB  IATA: BWH   Airport: Butterworth Airport
City: Penang
Country: Malaysia   Continent: Asia
WMKB METAR Weather: WMKB 210000Z 00000KT 7000 FEW020 SCT140 BKN270 26/25 Q1009 NOSIG
WMKB Flight Activity (FlightAware)

WMKB Radar
Feed Status: UP   Listeners: 1
Listen in your browser - HTML5 player (in browser, HTML5)
Click here to listen with your own player (launches your MP3 player)
WMKB Radar Audio Archives
FacilityFrequency
Butterworth Radar125.800

NOTICE

Unauthorized use prohibited. See LiveATC.net Terms of Service


Airport/ARTCC Code
Frequency Search
(e.g., 124.400, 128.75)
Site-wide search
 


Browse LiveATC Feeds
Top 50 LiveATC Feeds
LiveATC Feed Map
Bad Weather Areas

LiveATC FAQ
Offer LiveATC feed
Contact LiveATC.net
Press Inquiries

LiveATC on iPhone
LiveATC on Android

Windows Phone
Windows 8/10

LiveATC Mobile
(Mobile browser)

ATC Audio Archives
Interesting Recordings

LiveATC Forums


Home Page
About LiveATC.net
Make a Donation
Terms of Use
Privacy Policy

Canadian Air Freqs

AIRMETs/SIGMETs

FAA Airport Status
Nat'l Airspace Status
Arrival Demand Charts


Server Software By:
Icecast.org
Liquidsoap